Regional Weather Roundup
Issued by NWS

Home | Current Version | Previous Version | Text Only | Print | Product List | Glossary Off
Versions: 1 2 3 4 5 6 7 8 9 10 11 12 13 14 15 16 17 18 19 20 21 22 23 24 25 26 27 28 29 30 31 32 33 34 35 36 37 38 39 40 41 42 43 44 45 46 47 48 49 50

000
ASUS43 KFSD 041702
RWRSD

WEATHER ROUNDUP FOR SOUTH DAKOTA
NATIONAL WEATHER SERVICE SIOUX FALLS SD
1100 AM CST SUN DEC 04 2016

NOTE: "FAIR" INDICATES FEW OR NO CLOUDS BELOW 12,000 FEET WITH NO
SIGNIFICANT WEATHER AND/OR OBSTRUCTIONS TO VISIBILITY.


SDZ001>005-009-010-012>017-041800-
NORTHWEST AND NORTH CENTRAL SOUTH DAKOTA

CITY           SKY/WX    TMP DP  RH WIND       PRES   REMARKS
BUFFALO          N/A     36  25  64 W17       29.73F
FAITH            N/A     32  25  75 W7        29.82F WCI  26
MOBRIDGE       SUNNY     32  21  64 W8        29.80R WCI  25
$$

SDZ012>016-024>037-041>051-057-063-072>074-041800-
SOUTHWEST AND SOUTH CENTRAL SOUTH DAKOTA

CITY           SKY/WX    TMP DP  RH WIND       PRES   REMARKS
RAPID CTY ARPT SUNNY     42  19  39 W10       29.86F
PIERRE         SUNNY     34  24  67 W9        29.86S WCI  27
CUSTER         SUNNY     29  14  53 W9        29.83F WCI  20
ELLSWORTH AFB  SUNNY     41  20  42 W9        29.85F
PHILIP         SUNNY     36  25  64 W7        29.88F
PINE RIDGE     SUNNY     34  17  50 W8        29.93F WCI  27
SPEARFISH      FAIR      36  18  48 W13       29.82F
WINNER         FAIR      43  27  53 W15       29.90S
$$

SDZ004>011-016>023-039-040-041800-
NORTHEAST SOUTH DAKOTA

CITY           SKY/WX    TMP DP  RH WIND       PRES   REMARKS
ABERDEEN       MOSUNNY   34  29  82 W13       29.80S WCI  25
WATERTOWN      SUNNY     33  28  81 W15       29.79S WCI  23
SISSETON         N/A     36  29  75 W15       29.74S
$$

SDZ017-020-022-023-036>040-048>070-041800-
SOUTHEAST SOUTH DAKOTA

CITY           SKY/WX    TMP DP  RH WIND       PRES   REMARKS
SIOUX FALLS    SUNNY     38  31  76 W12       29.86F
HURON          SUNNY     37  31  78 W7        29.84F
CHAMBERLAIN    SUNNY     38  30  72 W10       29.89S
MITCHELL       SUNNY     38  31  76 W12       29.88F
YANKTON        SUNNY     41  28  60 W14       29.91S
$$

ABBREVIATIONS USED IN REMARKS
   TC - TEMPERATURE IN CELSIUS
  WCI - WIND CHILL INDEX
   HX - HEAT INDEX
  VSB - VISIBILITY




USA.gov is the U.S. government's official web portal to all federal, state and local government web resources and services.